Location: Observatory
(52.1446°N, 0.4624°W)
Time: 02:05:59
(UTC+01:00)

ISS - Pass Details

Date: 24 May 2018
Orbit: 402 x 406 km, 51.6° (Epoch: 21 June)

Event Time Altitude Azimuth Distance (km) Brightness Sun altitude
Rises 00:14:23 0° 269° (W) 2,321 0.2 -16.5°
Reaches altitude 10° 00:16:27 10° 269° (W) 1,460 -0.9 -16.6°
Maximum altitude 00:19:44 84° 183° (S) 411 -4.0 -16.6°
Drops below altitude 10° 00:23:00 10° 94° (E) 1,459 -1.1 -16.7°
Enters shadow 00:24:34 - 93° (E) 2,101 -0.3 -16.8°
